Weather History for Bentonville, AR

Change the Weather History Date:

Sunday, April 8, 2012

  Actual Average Record
Temperature  
Mean Temperature 60 °F -  
Max Temperature 69 °F 69 °F 87 °F (2011)
Min Temperature 51 °F 43 °F 25 °F (1990)
Degree Days  
Heating Degree Days 5    
Growing Degree Days 10 (Base 50)    
Moisture  
Dew Point 47 °F    
Average Humidity 63    
Maximum Humidity 88    
Minimum Humidity 42    
Precipitation  
Precipitation 0.05 in - - ()
Sea Level Pressure  
Sea Level Pressure 30.28 in    
Wind  
Wind Speed 8 mph (East)    
Max Wind Speed 15 mph    
Max Gust Speed 20 mph    
Visibility 10 miles    
Events      
Averages and records for this station are not official NWS values.
T = Trace of Precipitation, MM = Missing Value Source: NWS Daily Summary

Daily Weather History Graph

Daily Weather History Graph

Search for Another Location

Airport:

Trip Planner

Search our weather history database for the weather conditions in past years. The results will help you decide how hot, cold, wet, or windy it might be!

Date:

Astronomy

Apr. 08, 2012 Rise Set
Actual Time 6:52 AM CDT 7:45 PM CDT
Civil Twilight 6:26 AM CDT 8:11 PM CDT
Nautical Twilight 5:55 AM CDT 8:42 PM CDT
Astronomical Twilight 5:23 AM CDT 9:14 PM CDT
Moon 10:27 PM CDT (4/8) 7:54 AM CDT (4/8)
Length of Visible Light 13h 45m
Length of Day
12h 53m
Waning Gibbous, 95% of the Moon is Illuminated
Apr 8
Waning Gibbous
Apr 13
Last Quarter
Apr 21
New
Apr 29
First Quarter
May 5
Full

Hourly Weather History & Observations

Time (CDT) Temp. Dew Point Humidity Pressure Visibility Wind Dir Wind Speed Gust Speed Precip Events Conditions
12:15 AM 57.2 °F 53.6 °F 88% 30.30 in 7.0 mi NNE 6.9 mph - N/A   Unknown
12:35 AM 57.2 °F 53.6 °F 88% 30.30 in 6.0 mi NNE 8.1 mph - N/A   Unknown
12:55 AM 57.2 °F 53.6 °F 88% 30.31 in 5.0 mi NNE 6.9 mph - N/A   Unknown
1:15 AM 57.2 °F 53.6 °F 88% 30.31 in 6.0 mi NNE 8.1 mph - N/A   Unknown
1:35 AM 57.2 °F 53.6 °F 88% 30.31 in 8.0 mi NNE 9.2 mph - N/A   Unknown
1:55 AM 57.2 °F 50.0 °F 77% 30.31 in 10.0 mi NNE 10.4 mph 16.1 mph N/A   Unknown
2:15 AM 55.4 °F 48.2 °F 77% 30.31 in 10.0 mi NE 10.4 mph - N/A   Unknown
2:35 AM 55.4 °F 48.2 °F 77% 30.32 in 10.0 mi NNE 9.2 mph - N/A   Unknown
2:55 AM 55.4 °F 48.2 °F 77% 30.32 in 10.0 mi NE 6.9 mph - N/A   Unknown
3:15 AM 55.4 °F 46.4 °F 72% 30.31 in 10.0 mi NE 8.1 mph - N/A   Unknown
3:35 AM 53.6 °F 46.4 °F 77% 30.32 in 10.0 mi NE 6.9 mph - N/A   Unknown
3:55 AM 53.6 °F 46.4 °F 77% 30.31 in 10.0 mi NE 6.9 mph - N/A   Unknown
4:15 AM 53.6 °F 46.4 °F 77% 30.30 in 10.0 mi NE 9.2 mph - N/A   Unknown
4:35 AM 53.6 °F 46.4 °F 77% 30.30 in 10.0 mi NE 9.2 mph - N/A   Unknown
4:55 AM 53.6 °F 46.4 °F 77% 30.30 in 10.0 mi NE 9.2 mph - N/A   Unknown
5:15 AM 53.6 °F 46.4 °F 77% 30.30 in 10.0 mi ENE 9.2 mph - N/A   Unknown
5:55 AM 53.6 °F 44.6 °F 72% 30.32 in 10.0 mi ENE 8.1 mph - N/A   Unknown
6:15 AM 53.6 °F 44.6 °F 72% 30.33 in 10.0 mi ENE 5.8 mph - N/A   Unknown
6:35 AM 51.8 °F 42.8 °F 71% 30.33 in 10.0 mi ENE 8.1 mph - N/A   Unknown
6:55 AM 51.8 °F 42.8 °F 71% 30.33 in 10.0 mi ENE 6.9 mph - N/A   Unknown
7:15 AM 51.8 °F 41.0 °F 67% 30.33 in 10.0 mi ENE 6.9 mph - N/A   Unknown
7:35 AM 51.8 °F 42.8 °F 71% 30.34 in 10.0 mi ENE 6.9 mph - N/A   Unknown
7:55 AM 51.8 °F 42.8 °F 71% 30.35 in 10.0 mi ENE 8.1 mph - N/A   Unknown
8:35 AM 53.6 °F 42.8 °F 67% 30.34 in 10.0 mi ENE 12.7 mph - N/A   Unknown
8:55 AM 55.4 °F 41.0 °F 58% 30.33 in 10.0 mi East 15.0 mph 18.4 mph N/A   Unknown
9:15 AM 55.4 °F 41.0 °F 58% 30.32 in 10.0 mi East 15.0 mph - N/A   Unknown
9:35 AM 55.4 °F 39.2 °F 54% 30.33 in 10.0 mi East 13.8 mph 17.3 mph N/A   Unknown
9:55 AM 57.2 °F 39.2 °F 51% 30.32 in 10.0 mi East 12.7 mph 17.3 mph N/A   Unknown
10:15 AM 57.2 °F 39.2 °F 51% 30.33 in 10.0 mi East 13.8 mph - N/A   Unknown
10:35 AM 57.2 °F 39.2 °F 51% 30.34 in 10.0 mi East 11.5 mph 16.1 mph N/A   Unknown
10:55 AM 60.8 °F 39.2 °F 45% 30.34 in 10.0 mi ENE 12.7 mph - N/A   Unknown
11:15 AM 60.8 °F 39.2 °F 45% 30.34 in 10.0 mi East 12.7 mph 19.6 mph N/A   Unknown
11:35 AM 60.8 °F 39.2 °F 45% 30.34 in 10.0 mi East 11.5 mph - N/A   Unknown
11:55 AM 62.6 °F 41.0 °F 45% 30.34 in 10.0 mi East 12.7 mph - N/A   Unknown
12:15 PM 62.6 °F 41.0 °F 45% 30.33 in 10.0 mi ENE 8.1 mph - N/A   Unknown
12:35 PM 62.6 °F 42.8 °F 48% 30.33 in 10.0 mi ENE 8.1 mph - N/A   Unknown
12:55 PM 64.4 °F 41.0 °F 42% 30.32 in 10.0 mi SSE 4.6 mph - N/A   Unknown
1:15 PM 66.2 °F 42.8 °F 43% 30.31 in 10.0 mi East 3.5 mph - N/A   Unknown
1:35 PM 66.2 °F 42.8 °F 43% 30.31 in 10.0 mi South 3.5 mph - N/A   Unknown
1:55 PM 66.2 °F 42.8 °F 43% 30.30 in 10.0 mi South 5.8 mph - N/A   Unknown
2:15 PM 66.2 °F 44.6 °F 46% 30.30 in 10.0 mi ENE 3.5 mph - N/A   Unknown
2:35 PM 66.2 °F 44.6 °F 46% 30.29 in 10.0 mi SW 4.6 mph - N/A   Unknown
2:55 PM 68.0 °F 46.4 °F 46% 30.28 in 10.0 mi Calm Calm - N/A   Unknown
3:15 PM 68.0 °F 46.4 °F 46% 30.26 in 10.0 mi SSE 4.6 mph - N/A   Unknown
3:55 PM 69.8 °F 48.2 °F 46% 30.24 in 10.0 mi SW 4.6 mph - N/A   Unknown
4:15 PM 68.0 °F 48.2 °F 49% 30.24 in 10.0 mi WNW 3.5 mph - N/A   Unknown
4:35 PM 69.8 °F 50.0 °F 49% 30.23 in 10.0 mi SSW 8.1 mph - N/A   Unknown
4:55 PM 68.0 °F 50.0 °F 52% 30.23 in 10.0 mi SW 3.5 mph - N/A   Unknown
5:15 PM 66.2 °F 51.8 °F 60% 30.22 in 10.0 mi SSW 4.6 mph - N/A   Unknown
5:35 PM 68.0 °F 51.8 °F 56% 30.22 in 10.0 mi SSW 3.5 mph - N/A   Unknown
5:55 PM 68.0 °F 51.8 °F 56% 30.21 in 10.0 mi SW 4.6 mph - N/A   Unknown
6:15 PM 68.0 °F 50.0 °F 52% 30.21 in 10.0 mi WSW 5.8 mph - N/A   Unknown
6:35 PM 66.2 °F 51.8 °F 60% 30.21 in 10.0 mi Calm Calm - N/A   Unknown
6:55 PM 66.2 °F 51.8 °F 60% 30.20 in 10.0 mi WSW 5.8 mph - N/A   Unknown
7:15 PM 64.4 °F 53.6 °F 68% 30.19 in 10.0 mi WSW 5.8 mph - N/A   Unknown
7:35 PM 64.4 °F 53.6 °F 68% 30.20 in 10.0 mi SW 6.9 mph - N/A   Unknown
7:55 PM 62.6 °F 53.6 °F 72% 30.20 in 10.0 mi WSW 10.4 mph - N/A   Unknown
8:15 PM 62.6 °F 51.8 °F 68% 30.20 in 10.0 mi SW 8.1 mph - N/A   Unknown
8:35 PM 62.6 °F 51.8 °F 68% 30.20 in 10.0 mi SW 6.9 mph - N/A   Unknown
8:55 PM 62.6 °F 51.8 °F 68% 30.21 in 10.0 mi WSW 6.9 mph - N/A   Unknown
9:15 PM 60.8 °F 51.8 °F 72% 30.21 in 10.0 mi WSW 4.6 mph - N/A   Unknown
9:35 PM 60.8 °F 51.8 °F 72% 30.21 in 10.0 mi WSW 4.6 mph - N/A   Unknown
9:55 PM 60.8 °F 51.8 °F 72% - 10.0 mi North - - N/A   Unknown
10:35 PM - - N/A% 30.21 in 10.0 mi SW 5.8 mph - N/A   Unknown
11:15 PM - - N/A% 30.20 in 10.0 mi SSW 4.6 mph - N/A   Unknown
11:35 PM - - N/A% 30.20 in 10.0 mi SW 3.5 mph - N/A   Unknown
11:55 PM - - N/A% 30.20 in 10.0 mi SSW 3.5 mph - N/A   Unknown